Weather History for Mandan, ND

Change the Weather History Date:

Tuesday, May 14, 2013

  Actual Average (KBIS) Record (KBIS)
Temperature  
Mean Temperature 62 °F 55 °F  
Max Temperature 75 °F 68 °F 91 °F (1969)
Min Temperature 48 °F 42 °F 20 °F (1907)
Degree Days  
Heating Degree Days 2 10  
Month to date heating degree days 175  
Since 1 July heating degree days 8330  
Cooling Degree Days 0 0  
Month to date cooling degree days 0  
Year to date cooling degree days 1  
Growing Degree Days 12 (Base 50)    
Moisture  
Dew Point 42 °F    
Average Humidity 45    
Maximum Humidity 100    
Minimum Humidity 21    
Precipitation  
Precipitation 0.00 in 0.07 in 1.62 in (1908)
Month to date precipitation 0.96  
Year to date precipitation 4.03  
Snow  
Snow 0.00 in 0.00 in 6.00 in (1889)
Month to date snowfall 0.4  
Since 1 July snowfall 51.2  
Snow Depth -    
Sea Level Pressure  
Sea Level Pressure 29.72 in    
Wind  
Wind Speed 15 mph (NW)    
Max Wind Speed 39 mph    
Max Gust Speed 50 mph    
Visibility 10 miles    
Events      
T = Trace of Precipitation, MM = Missing Value Source: NWS Daily Summary

Daily Weather History Graph

Daily Weather History Graph

Search for Another Location

Airport:

Trip Planner

Search our weather history database for the weather conditions in past years. The results will help you decide how hot, cold, wet, or windy it might be!

Date:

Astronomy

May. 14, 2013 Rise Set
Actual Time 6:09 AM CDT 9:10 PM CDT
Civil Twilight 5:34 AM CDT 9:46 PM CDT
Nautical Twilight 4:48 AM CDT 10:32 PM CDT
Astronomical Twilight 3:52 AM CDT 11:28 PM CDT
Moon 9:52 AM CDT (5/14) 12:20 AM CDT (5/14)
Length of Visible Light 16h 12m
Length of Day
15h 00m
Waxing Crescent, 19% of the Moon is Illuminated
May 14
Waxing Crescent
May 17
First Quarter
May 24
Full
May 31
Last Quarter
Jun 8
New

Hourly Weather History & Observations

Time (CDT) Temp. Dew Point Humidity Pressure Visibility Wind Dir Wind Speed Gust Speed Precip Events Conditions
12:15 AM 66.2 °F 41.0 °F 40% 29.64 in 10.0 mi South 9.2 mph - N/A   Clear
12:35 AM 68.0 °F 41.0 °F 37% 29.64 in 10.0 mi South 8.1 mph - N/A   Clear
12:55 AM 68.0 °F 41.0 °F 37% 29.64 in 10.0 mi SE 3.5 mph - N/A   Clear
1:15 AM 66.2 °F 44.6 °F 46% 29.65 in 10.0 mi SSW 3.5 mph - N/A   Scattered Clouds
1:35 AM 68.0 °F 42.8 °F 40% 29.63 in 10.0 mi SE 8.1 mph - N/A   Mostly Cloudy
1:55 AM 66.2 °F 44.6 °F 46% 29.63 in 10.0 mi NE 5.8 mph - N/A   Mostly Cloudy
2:15 AM 66.2 °F 44.6 °F 46% 29.63 in 10.0 mi North 9.2 mph - N/A   Clear
2:35 AM 66.2 °F 44.6 °F 46% 29.60 in 10.0 mi East 10.4 mph - N/A   Mostly Cloudy
2:55 AM 64.4 °F 46.4 °F 52% 29.58 in 10.0 mi East 13.8 mph - N/A   Scattered Clouds
3:15 AM 66.2 °F 44.6 °F 46% 29.56 in 10.0 mi East 10.4 mph - N/A   Partly Cloudy
3:35 AM 64.4 °F 44.6 °F 49% 29.54 in 10.0 mi SE 11.5 mph - N/A   Clear
3:55 AM 62.6 °F 44.6 °F 52% 29.54 in 10.0 mi SSE 6.9 mph - N/A   Clear
4:15 AM 62.6 °F 42.8 °F 48% 29.53 in 10.0 mi SSE 12.7 mph - N/A   Scattered Clouds
4:35 AM 64.4 °F 44.6 °F 49% 29.63 in 10.0 mi NW 11.5 mph 26.5 mph N/A   Partly Cloudy
4:55 AM 64.4 °F 44.6 °F 49% 29.59 in 10.0 mi North 4.6 mph - N/A   Partly Cloudy
5:15 AM 64.4 °F 44.6 °F 49% 29.56 in 10.0 mi ENE 5.8 mph - N/A   Mostly Cloudy
5:35 AM 59.0 °F 44.6 °F 59% 29.56 in 10.0 mi ESE 3.5 mph - N/A   Scattered Clouds
5:55 AM 59.0 °F 46.4 °F 63% 29.60 in 10.0 mi NW 15.0 mph 21.9 mph N/A   Scattered Clouds
6:15 AM 60.8 °F 55.4 °F 82% 29.61 in 10.0 mi North 17.3 mph 24.2 mph N/A   Partly Cloudy
6:35 AM 59.0 °F 57.2 °F 94% 29.64 in 10.0 mi North 16.1 mph - N/A   Clear
6:55 AM 59.0 °F 57.2 °F 94% 29.65 in 10.0 mi North 15.0 mph 19.6 mph N/A   Clear
7:15 AM 59.0 °F 59.0 °F 100% 29.66 in 10.0 mi NNE 10.4 mph - N/A   Clear
7:35 AM 59.0 °F 59.0 °F 100% 29.66 in 10.0 mi NNE 12.7 mph - N/A   Clear
7:55 AM 60.8 °F 59.0 °F 94% 29.67 in 10.0 mi North 9.2 mph - N/A   Clear
8:15 AM 62.6 °F 59.0 °F 88% 29.68 in 10.0 mi North 6.9 mph - N/A   Clear
8:35 AM 64.4 °F 59.0 °F 83% 29.70 in 10.0 mi WNW 12.7 mph - N/A   Clear
8:55 AM 64.4 °F 59.0 °F 83% 29.73 in 10.0 mi WNW 17.3 mph 24.2 mph N/A   Clear
9:15 AM 66.2 °F 57.2 °F 73% 29.73 in 10.0 mi WNW 23.0 mph 27.6 mph N/A   Clear
9:35 AM 68.0 °F 48.2 °F 49% 29.73 in 10.0 mi NW 25.3 mph 34.5 mph N/A   Clear
9:55 AM 68.0 °F 44.6 °F 43% 29.73 in 10.0 mi WNW 28.8 mph 38.0 mph N/A   Clear
10:15 AM 68.0 °F 39.2 °F 35% 29.73 in 10.0 mi NW 29.9 mph 39.1 mph N/A   Clear
10:35 AM 68.0 °F 33.8 °F 28% 29.74 in 9.0 mi NW 31.1 mph 39.1 mph N/A   Clear
10:55 AM 69.8 °F 32.0 °F 25% 29.74 in 10.0 mi WNW 27.6 mph 41.4 mph N/A   Clear
11:15 AM 69.8 °F 32.0 °F 25% 29.74 in 10.0 mi WNW 28.8 mph 39.1 mph N/A   Clear
11:35 AM 71.6 °F 32.0 °F 23% 29.73 in 10.0 mi West 27.6 mph 39.1 mph N/A   Clear
11:55 AM 71.6 °F 32.0 °F 23% 29.73 in 10.0 mi WNW 28.8 mph 40.3 mph N/A   Clear
12:15 PM 71.6 °F 32.0 °F 23% 29.73 in 10.0 mi WNW 32.2 mph 44.9 mph N/A   Clear
12:35 PM 73.4 °F 32.0 °F 22% 29.73 in 10.0 mi WNW 29.9 mph 46.0 mph N/A   Clear
12:55 PM 73.4 °F 32.0 °F 22% 29.72 in 10.0 mi WNW 35.7 mph 43.7 mph N/A   Clear
1:15 PM 75.2 °F 32.0 °F 21% 29.72 in 7.0 mi WNW 32.2 mph 48.3 mph N/A   Clear
1:35 PM 75.2 °F 32.0 °F 21% 29.72 in 7.0 mi WNW 39.1 mph 49.5 mph N/A   Clear
1:55 PM 75.2 °F 33.8 °F 22% 29.73 in 8.0 mi WNW 33.4 mph 47.2 mph N/A   Clear
2:15 PM 75.2 °F 35.6 °F 24% 29.74 in 10.0 mi NW 32.2 mph 47.2 mph N/A   Clear
2:35 PM 75.2 °F 37.4 °F 25% 29.74 in 10.0 mi NW 28.8 mph 41.4 mph N/A   Clear
2:55 PM 73.4 °F 37.4 °F 27% 29.75 in 8.0 mi WNW 33.4 mph 48.3 mph N/A   Clear
3:15 PM 73.4 °F 39.2 °F 29% 29.76 in 10.0 mi NW 32.2 mph 41.4 mph N/A   Clear
3:35 PM 71.6 °F 39.2 °F 31% 29.78 in 10.0 mi NW 32.2 mph 43.7 mph N/A   Clear
3:55 PM 71.6 °F 39.2 °F 31% 29.78 in 10.0 mi NNW 36.8 mph 43.7 mph N/A   Clear
4:15 PM 71.6 °F 39.2 °F 31% 29.79 in 10.0 mi NNW 31.1 mph 47.2 mph N/A   Clear
4:35 PM 71.6 °F 39.2 °F 31% 29.79 in 10.0 mi NW 31.1 mph 41.4 mph N/A   Partly Cloudy
4:55 PM 71.6 °F 39.2 °F 31% 29.79 in 10.0 mi NNW 25.3 mph 35.7 mph N/A   Clear
5:15 PM 71.6 °F 37.4 °F 29% 29.80 in 10.0 mi NW 24.2 mph 38.0 mph N/A   Partly Cloudy
5:35 PM 71.6 °F 37.4 °F 29% 29.80 in 10.0 mi NW 23.0 mph 32.2 mph N/A   Partly Cloudy
5:55 PM 71.6 °F 39.2 °F 31% 29.80 in 10.0 mi NNW 20.7 mph 32.2 mph N/A   Partly Cloudy
6:15 PM 71.6 °F 37.4 °F 29% 29.81 in 10.0 mi NW 20.7 mph 29.9 mph N/A   Clear
6:35 PM 71.6 °F 37.4 °F 29% 29.81 in 10.0 mi NW 17.3 mph 27.6 mph N/A   Clear
6:55 PM 71.6 °F 37.4 °F 29% 29.81 in 10.0 mi NW 19.6 mph 24.2 mph N/A   Clear
7:15 PM 69.8 °F 37.4 °F 31% 29.81 in 10.0 mi NW 17.3 mph 25.3 mph N/A   Clear
7:35 PM 69.8 °F 37.4 °F 31% 29.82 in 10.0 mi NW 16.1 mph 20.7 mph N/A   Clear
7:55 PM 68.0 °F 37.4 °F 33% 29.82 in 10.0 mi NW 17.3 mph - N/A   Clear
8:15 PM 68.0 °F 39.2 °F 35% 29.83 in 10.0 mi NNW 12.7 mph 19.6 mph N/A   Clear
8:35 PM 66.2 °F 37.4 °F 35% 29.83 in 10.0 mi NW 10.4 mph 17.3 mph N/A   Clear
8:55 PM 64.4 °F 39.2 °F 40% 29.84 in 10.0 mi WNW 6.9 mph - N/A   Clear
9:15 PM 60.8 °F 37.4 °F 42% 29.84 in 10.0 mi WNW 6.9 mph - N/A   Clear
9:35 PM 59.0 °F 37.4 °F 45% 29.85 in 10.0 mi WNW 5.8 mph - N/A   Clear
9:55 PM 59.0 °F 37.4 °F 45% 29.85 in 10.0 mi NW 5.8 mph - N/A   Clear
10:15 PM 59.0 °F 37.4 °F 45% 29.86 in 10.0 mi NW 8.1 mph - N/A   Clear
10:35 PM 55.4 °F 37.4 °F 51% 29.86 in 10.0 mi WNW 5.8 mph - N/A   Clear
11:15 PM 53.6 °F 37.4 °F 54% 29.85 in 10.0 mi WSW 5.8 mph - N/A   Clear
11:35 PM 50.0 °F 37.4 °F 62% 29.86 in 10.0 mi WSW 6.9 mph - N/A   Clear
11:55 PM 48.2 °F 37.4 °F 66% 29.86 in 10.0 mi WSW 5.8 mph - N/A   Clear